Content
SEND FEEDBACK

Daily
Averages
Monthly
Summary
United States of America

MORRISVILLE, NORTH CAROLINA


Home > North America > United States > North Carolina
Elevation: 387 feet     Latitude: 35 52N     Longitude: 078 47W

WEATHER
 
SELECT A DAY
Number of Records: 193,183;   Date Range: 1/1/95 - 9/22/14
 
SHARE

PRINT THIS DATA

[ ← Previous Day ]
WEATHER ALMANAC - JANUARY 31, 2013
[ Next Day → ]
[ °C ]   °F
Weather ElementAverageHighLow
Temperature45.9 °F57.9 °F (12:51 am)34 °F (11:51 pm)
Dewpoint27.9 °F53.1 °F (12:51 am)17.1 °F (2:51 pm)
Humidity51.9 %86 % (1:51 am)28 % (2:51 pm)
Barometer29.80 in30.02 in (11:51 pm)29.48 in (1:51 am)
Wind Speed13.1 mph23 mph (1:51 am)
Wind Gust40.3 mph (12:51 am)
Weather ElementAverage
Visibility9.8 mi
Wind DirectionWSW (262.9 °)

Weather ElementTotal
Precipitation0.12 in
Heating Degree Days19.1 (Base 65)
Averaged from 24 records on January 31, 2013
WEATHER CONDITIONS BREAKOUT
WIND DIRECTION BREAKOUT
WEATHER BY HOUR - JANUARY 31, 2013
[ °C ]   °F
Local TimeTemperatureDewpointHumidityBarometerVisibilityWind DirectionWind SpeedGust SpeedPrecipitationEventsConditions
12:51 AM57.9 °F53.1 °F84 %29.49 in6.0 miWSW (250°)19.6 mph40.3 mph0.04 inRainLight Rain
1:51 AM54.0 °F50.0 °F86 %29.48 in10.0 miSW (230°)23.0 mph0.08 inRainLight Rain
2:51 AM51.1 °F46.0 °F83 %29.49 in10.0 miWSW (240°)21.9 mph34.5 mph0.00 inMostly Cloudy
3:51 AM51.1 °F44.1 °F77 %29.52 in10.0 miWSW (250°)20.7 mph34.5 mphMostly Cloudy
4:51 AM50.0 °F44.1 °F80 %29.56 in10.0 miWest (260°)12.7 mph24.2 mph0.00 inRainLight Rain
5:51 AM48.9 °F39.9 °F71 %29.62 in10.0 miWest (260°)10.4 mph0.00 inMostly Cloudy
6:51 AM46.9 °F30.0 °F52 %29.67 in10.0 miWest (280°)12.7 mph24.2 mphScattered Clouds
7:51 AM45.0 °F27.0 °F49 %29.73 in10.0 miWest (280°)16.1 mph33.4 mphScattered Clouds
8:51 AM45.0 °F28.0 °F52 %29.78 in10.0 miWest (280°)12.7 mph25.3 mphScattered Clouds
9:51 AM45.0 °F23.0 °F42 %29.83 in10.0 miWNW (300°)12.7 mph25.3 mphPartly Cloudy
10:51 AM46.0 °F24.1 °F42 %29.86 in10.0 miWest (270°)17.3 mph26.5 mphPartly Cloudy
11:51 AM48.0 °F23.0 °F37 %29.86 in10.0 miWest (280°)12.7 mph19.6 mphPartly Cloudy
12:51 PM48.0 °F21.9 °F36 %29.85 in10.0 miWest (260°)17.3 mph23.0 mphPartly Cloudy
1:51 PM48.0 °F19.9 °F33 %29.86 in10.0 miWest (260°)18.4 mph29.9 mphPartly Cloudy
2:51 PM48.9 °F17.1 °F28 %29.86 in10.0 miWest (280°)17.3 mph27.6 mphPartly Cloudy
3:51 PM46.9 °F18.0 °F32 %29.89 in10.0 miWest (270°)11.5 mph24.2 mphPartly Cloudy
4:51 PM46.9 °F19.9 °F34 %29.93 in10.0 miWest (260°)15.0 mph24.2 mphPartly Cloudy
5:51 PM44.1 °F19.9 °F38 %29.94 in10.0 miWest (280°)8.1 mphScattered Clouds
6:51 PM43.0 °F19.0 °F38 %29.98 in10.0 miWNW (290°)9.2 mph16.1 mphPartly Cloudy
7:51 PM41.0 °F19.0 °F41 %30.01 in10.0 miWest (260°)6.9 mphClear
8:51 PM39.9 °F19.0 °F43 %30.01 in10.0 miWest (260°)3.5 mphClear
9:51 PM37.0 °F19.9 °F50 %30.01 in10.0 miWSW (250°)3.5 mphClear
10:51 PM35.1 °F21.9 °F59 %30.01 in10.0 miSW (230°)5.8 mphClear
11:51 PM34.0 °F21.0 °F59 %30.02 in10.0 miSW (230°)5.8 mphClear
Hourly data recorded from KRDU, located miles away from Morrisville, North Carolina







STORIES FROM OUR PARTNERS